Logan Cache Airport Logan US
ICAO: KLGU
IATA: LGU
Category: Medium
Scheduled Services: No

Elevation: 4457 ft
TransAlt. 18000 ft.

Airport Communications:
ASOS:135.275
CEDAR CITY RDO:122.2
CTAF/UNICOM:122.8

KLGU Zoom In..

If you have problems with the map follow the link
https://www.worldairports.se/pages/airport.php?
ICAO=KLGU

Runways:

(A) RW 10 length 5005 ft width 75 ft
---- / hdg 108

(B) RW 17 length 9010 ft width 100 ft
ILS 109.15 / hdg 169

(C) RW 28 length 5005 ft width 75 ft
---- / hdg 288

(D) RW 35 length 9010 ft width 100 ft
---- / hdg 349

Location; KLGU
Day. 16 / Time. 11.51 Zulu
* Altimeter: 30.17
* Temperature: -06° c. -21.2°f.
* Wind from: 000° Speed 00 kn.
Dewpoint: -08° c.
Visibility: 10 Statute Miles.
Clouds: Clear (automated report).

KLGU 161151Z AUTO 00000KT 10SM CLR M06/M08 A3017 RMK AO2 SLP227 T10561083 11022 21078 58010


Wind - Calm.

 
 
jpsmedia.com for Web Design worldairports.se 2018   terms of use